Pagosa Springs, CO

9:58 AM MST on December 15, 2017 (GMT -0700)
Pagosa Springs

Weather History for KPSO - January, 2013

Change the Weather History Date:

Sunday, January 13, 2013

  Actual Average (KE33) Record (KE33)
Temperature  
Mean Temperature 2 °F -  
Max Temperature 13 °F 35 °F 51 °F (2004)
Min Temperature -9 °F 17 °F 6 °F (2009)
Degree Days  
Heating Degree Days 63    
Moisture  
Dew Point -1 °F    
Average Humidity 82    
Maximum Humidity 91    
Minimum Humidity 68    
Precipitation  
Precipitation 0.00 in - - ()
Sea Level Pressure  
Sea Level Pressure 29.86 in    
Wind  
Wind Speed 0 mph (NE)    
Max Wind Speed 5 mph    
Max Gust Speed -    
Visibility 5 miles    
Events Snow , Thunderstorm    
Averages and records for this station are not official NWS values.
T = Trace of Precipitation, MM = Missing Value Source: NWS Daily Summary

Daily Weather History Graph

Daily Weather History Graph

Search for Another Location

Airport or City:

Trip Planner

Search our weather history database for the weather conditions in past years. The results will help you decide how hot, cold, wet, or windy it might be!

Date:

Astronomy

Jan. 13, 2013 Rise Set
Actual Time 7:21 AM MST 5:12 PM MST
Civil Twilight 6:53 AM MST 5:41 PM MST
Nautical Twilight 6:21 AM MST 6:13 PM MST
Astronomical Twilight 5:49 AM MST 6:44 PM MST
Moon 8:25 AM MST (1/13) 7:50 PM MST (1/13)
Length of Visible Light 10h 48m
Length of Day
9h 51m
Waxing Crescent, 5% of the Moon is Illuminated
Jan 13
Waxing Crescent
Jan 18
First Quarter
Jan 26
Full
Feb 3
Last Quarter
Feb 10
New

Hourly Weather History & Observations

Time (MST) Temp. Windchill Dew Point Humidity Pressure Visibility Wind Dir Wind Speed Gust Speed Precip Events Conditions
12:15 AM -3.1 °F - -7.1 °F 83% 29.85 in 10.0 mi Calm Calm - N/A   Overcast
12:35 AM -5.1 °F - -10.7 °F 77% 29.85 in 10.0 mi Calm Calm - N/A   Mostly Cloudy
12:55 AM -4.4 °F - -8.7 °F 82% 29.86 in 10.0 mi Calm Calm - N/A   Scattered Clouds
1:15 AM -5.1 °F - -9.8 °F 80% 29.86 in 10.0 mi Calm Calm - N/A   Clear
1:35 AM -7.4 °F - -12.8 °F 77% 29.86 in 5.0 mi Calm Calm - N/A Snow Light Snow
1:55 AM -6.3 °F - -11.2 °F 79% 29.86 in 5.0 mi Calm Calm - N/A Snow Light Snow
2:15 AM -7.4 °F - -12.8 °F 77% 29.87 in 7.0 mi Calm Calm - N/A Snow Light Snow
2:35 AM -9.2 °F - -14.4 °F 78% 29.87 in 10.0 mi Calm Calm - N/A   Clear
2:55 AM -6.9 °F - -11.9 °F 79% 29.87 in 10.0 mi Calm Calm - N/A   Clear
3:15 AM -8.9 °F - -14.1 °F 78% 29.87 in 10.0 mi Calm Calm - N/A   Clear
3:35 AM -9.9 °F - -15.5 °F 76% 29.87 in 7.0 mi Calm Calm - N/A   Clear
3:55 AM -9.4 °F - -15.0 °F 76% 29.86 in 10.0 mi Calm Calm - N/A Snow Light Snow
4:15 AM -8.1 °F - -13.5 °F 77% 29.86 in 10.0 mi Calm Calm - N/A Snow Light Snow
4:35 AM -4.0 °F -14.6 °F -8.0 °F 83% 29.86 in 2.5 mi East 4.6 mph - N/A Snow Light Snow
4:55 AM -8.0 °F - -13.5 °F 77% 29.86 in 3.0 mi Calm Calm - N/A Snow Light Snow
5:15 AM -4.4 °F - -8.3 °F 83% 29.86 in 5.0 mi Calm Calm - N/A Snow Light Snow
5:35 AM -5.8 °F - -11.0 °F 78% 29.86 in 7.0 mi Calm Calm - N/A Snow Light Snow
5:55 AM -4.2 °F - -8.5 °F 82% 29.86 in 2.5 mi Calm Calm - N/A Snow Light Snow
6:15 AM -4.2 °F - -8.9 °F 80% 29.86 in 4.0 mi Calm Calm - N/A Snow Light Snow
6:35 AM -0.8 °F - -5.1 °F 82% 29.86 in 7.0 mi Calm Calm - N/A   Overcast
6:55 AM -1.5 °F - -5.8 °F 82% 29.86 in 7.0 mi Calm Calm - N/A   Overcast
7:15 AM -0.8 °F - -5.1 °F 82% 29.87 in 7.0 mi Calm Calm - N/A   Overcast
7:35 AM -1.5 °F - -5.8 °F 82% 29.88 in 5.0 mi Calm Calm - N/A   Overcast
7:55 AM -1.3 °F - -5.1 °F 84% 29.88 in 2.5 mi Calm Calm - N/A Snow Light Snow
8:15 AM -0.4 °F - -4.5 °F 83% 29.88 in 3.0 mi Calm Calm - N/A Snow Light Snow
8:35 AM 1.6 °F - -2.6 °F 83% 29.89 in 2.0 mi Calm Calm - N/A Snow Light Snow
8:55 AM 2.7 °F - -1.8 °F 81% 29.89 in 1.8 mi Calm Calm - N/A Snow Light Snow
9:15 AM 2.5 °F - -1.3 °F 84% 29.89 in 1.8 mi Calm Calm - N/A Snow Light Snow
9:35 AM 3.4 °F - -1.3 °F 81% 29.89 in 1.5 mi Calm Calm - N/A Snow Light Snow
9:55 AM 5.5 °F - 2.3 °F 86% 29.89 in 0.8 mi Calm Calm - N/A Snow Light Snow
10:35 AM 6.8 °F - 3.2 °F 85% 29.89 in 2.0 mi Calm Calm - N/A Snow Light Snow
10:55 AM 7.5 °F - 3.9 °F 85% 29.89 in 2.5 mi Calm Calm - N/A Snow Light Snow
11:15 AM 7.9 °F - 4.3 °F 85% 29.88 in 3.0 mi Calm Calm - N/A Snow Light Snow
11:35 AM 8.2 °F - 4.5 °F 85% 29.88 in 3.0 mi Calm Calm - N/A   Overcast
11:55 AM 9.0 °F - 5.0 °F 84% 29.86 in 2.5 mi Calm Calm - N/A Snow Light Snow
12:15 PM 9.7 °F 3.2 °F 5.7 °F 84% 29.85 in 2.0 mi South 3.5 mph - N/A Snow Light Snow
12:35 PM 10.2 °F - 5.4 °F 81% 29.84 in 1.5 mi Calm Calm - N/A Snow Light Snow
12:55 PM 10.4 °F - 5.7 °F 81% 29.84 in 0.8 mi Calm Calm - N/A Snow Light Snow
1:15 PM 11.3 °F - 5.9 °F 79% 29.83 in 0.8 mi Calm Calm - N/A Snow Light Snow
1:35 PM 11.8 °F - 6.4 °F 79% 29.82 in 0.8 mi Calm Calm - N/A Snow Light Snow
1:55 PM 12.6 °F - 6.8 °F 78% 29.82 in 0.8 mi Calm Calm - N/A Snow Light Snow
2:15 PM 12.6 °F - 6.1 °F 75% 29.82 in 3.0 mi Calm Calm - N/A Snow Light Snow
2:35 PM 13.8 °F - 6.8 °F 74% 29.83 in 5.0 mi Calm Calm - N/A Snow Light Snow
2:55 PM 13.8 °F - 5.0 °F 68% 29.83 in 10.0 mi Calm Calm - N/A   Overcast
3:15 PM 13.1 °F - 5.4 °F 71% 29.83 in 10.0 mi Calm Calm - N/A   Overcast
3:35 PM 13.1 °F - 5.4 °F 71% 29.84 in 10.0 mi Calm Calm - N/A   Overcast
3:55 PM 13.3 °F - 5.2 °F 70% 29.84 in 10.0 mi Calm Calm - N/A   Overcast
4:15 PM 12.9 °F - 6.1 °F 74% 29.84 in 4.0 mi Calm Calm - N/A   Haze
4:35 PM 12.7 °F - 7.2 °F 78% 29.85 in 1.8 mi Calm Calm - N/A Snow Light Snow
4:55 PM 12.2 °F - 8.2 °F 84% 29.84 in 1.2 mi Calm Calm - N/A Snow Light Snow
5:15 PM 12.0 °F - 8.6 °F 86% 29.85 in 1.5 mi Calm Calm - N/A Snow Light Snow
5:35 PM 12.6 °F - 8.6 °F 84% 29.85 in 3.0 mi Calm Calm - N/A Snow Light Snow
5:55 PM 11.8 °F - 9.0 °F 88% 29.86 in 1.8 mi Calm Calm - N/A Snow Light Snow
6:15 PM 11.3 °F - 8.8 °F 90% 29.86 in 4.0 mi Calm Calm - N/A Snow , Thunderstorm Light Thunderstorms and Snow
6:35 PM 11.3 °F - 8.2 °F 87% 29.86 in 7.0 mi Calm Calm - N/A   Overcast
6:55 PM 9.1 °F - 6.6 °F 89% 29.86 in 4.0 mi Calm Calm - N/A Snow Light Snow
7:15 PM 8.2 °F - 6.1 °F 91% 29.86 in 4.0 mi Calm Calm - N/A Snow Light Snow
7:35 PM 7.2 °F - 4.5 °F 89% 29.86 in 4.0 mi Calm Calm - N/A Snow Light Snow
7:55 PM 6.1 °F -0.9 °F 3.4 °F 89% 29.86 in 5.0 mi NNE 3.5 mph - N/A Snow Light Snow
8:15 PM 7.3 °F - 3.7 °F 85% 29.86 in 10.0 mi Calm Calm - N/A   Overcast
8:35 PM 4.8 °F - 2.5 °F 90% 29.86 in 5.0 mi Calm Calm - N/A   Overcast
8:55 PM 4.5 °F - 1.9 °F 89% 29.86 in 4.0 mi Calm Calm - N/A Snow Light Snow
9:15 PM 5.2 °F - 1.9 °F 86% 29.86 in 7.0 mi Calm Calm - N/A   Overcast
9:35 PM 4.3 °F - -0.0 °F 82% 29.86 in 5.0 mi Calm Calm - N/A Snow Light Snow
9:55 PM 7.9 °F -0.7 °F 4.6 °F 87% 29.86 in 7.0 mi NE 4.6 mph - N/A   Overcast
10:35 PM 6.6 °F -0.3 °F 3.2 °F 86% 29.86 in 10.0 mi NNE 3.5 mph - N/A   Overcast
10:55 PM 7.7 °F - 4.8 °F 88% 29.86 in 7.0 mi Calm Calm - N/A   Overcast
11:15 PM 7.3 °F - 3.6 °F 85% 29.86 in 4.0 mi Calm Calm - N/A Snow Light Snow
11:35 PM 7.2 °F - 4.6 °F 89% 29.86 in 10.0 mi Calm Calm - N/A Snow Light Snow
11:55 PM 7.5 °F - 4.5 °F 87% 29.86 in 10.0 mi Calm Calm - N/A   Overcast